Weather History for Rapid City, SD

Change the Weather History Date:

Sunday, November 11, 2012

  Actual Average Record
Temperature  
Mean Temperature 15 °F 37 °F  
Max Temperature 24 °F 49 °F 74 °F (2005)
Min Temperature 5 °F 24 °F -5 °F (1986)
Degree Days  
Heating Degree Days 50 28  
Month to date heating degree days 299 284  
Since 1 July heating degree days 982 1046  
Cooling Degree Days 0 0  
Month to date cooling degree days 0 0  
Year to date cooling degree days 937 636  
Moisture  
Dew Point 7 °F    
Average Humidity 70    
Maximum Humidity 83    
Minimum Humidity 57    
Precipitation  
Precipitation 0.00 in 0.02 in 0.38 in (1988)
Month to date precipitation 0.26 0.24  
Year to date precipitation 10.97 15.58  
Snow  
Snow 0.00 in 0.20 in - ()
Month to date snowfall 2.3 2.1  
Since 1 July snowfall 2.4 3.9  
Since 1 September snowfall 2.4 3.9  
Snow Depth 2.00 in    
Sea Level Pressure  
Sea Level Pressure 30.13 in    
Wind  
Wind Speed 10 mph (NNW)    
Max Wind Speed 25 mph    
Max Gust Speed 29 mph    
Visibility 10 miles    
Events      
T = Trace of Precipitation, MM = Missing Value Source: NWS Daily Summary

Daily Weather History Graph

Daily Weather History Graph

Search for Another Location

Airport:

Trip Planner

Search our weather history database for the weather conditions in past years. The results will help you decide how hot, cold, wet, or windy it might be!

Date:

Astronomy

Nov. 11, 2012 Rise Set
Actual Time 6:42 AM MST 4:29 PM MST
Civil Twilight 6:11 AM MST 5:00 PM MST
Nautical Twilight 5:37 AM MST 5:34 PM MST
Astronomical Twilight 5:03 AM MST 6:08 PM MST
Moon 3:55 AM MST (11/11) 2:57 PM MST (11/11)
Length of Visible Light 10h 48m
Length of Day
9h 46m
Waning Crescent, 7% of the Moon is Illuminated
Nov 11
Waning Crescent
Nov 13
New
Nov 20
First Quarter
Nov 28
Full
Dec 6
Last Quarter

Hourly Weather History & Observations

Time (MST) Temp. Windchill Dew Point Humidity Pressure Visibility Wind Dir Wind Speed Gust Speed Precip Events Conditions
12:52 AM 12.9 °F -4.4 °F 3.9 °F 67% 30.03 in 10.0 mi NNW 18.4 mph - N/A   Clear
1:52 AM 10.9 °F -6.5 °F 3.9 °F 73% 30.05 in 10.0 mi North 17.3 mph - N/A   Clear
2:52 AM 8.1 °F -7.7 °F 1.9 °F 76% 30.09 in 10.0 mi North 12.7 mph - N/A   Clear
3:52 AM 7.0 °F -8.3 °F 1.0 °F 77% 30.09 in 10.0 mi North 11.5 mph - N/A   Clear
4:52 AM 7.0 °F -8.3 °F 1.0 °F 77% 30.10 in 10.0 mi North 11.5 mph - N/A   Clear
5:52 AM 7.0 °F -6.6 °F 1.0 °F 77% 30.10 in 10.0 mi North 9.2 mph - N/A   Clear
6:52 AM 7.0 °F - 1.0 °F 77% 30.11 in 10.0 mi Calm Calm - N/A   Clear
7:52 AM 10.0 °F - 5.0 °F 80% 30.11 in 10.0 mi Calm Calm - N/A   Clear
8:52 AM 10.9 °F 4.7 °F 6.1 °F 81% 30.11 in 10.0 mi SSE 3.5 mph - N/A   Clear
9:52 AM 15.1 °F - 9.0 °F 77% 30.13 in 10.0 mi Calm Calm - N/A   Clear
10:52 AM 21.2 °F 14.9 °F 8.6 °F 58% 29.95 in 10.0 mi NNE 4.6 mph - N/A   Clear
11:50 AM 24.8 °F 11.5 °F 12.2 °F 59% 29.94 in 10.0 mi NNW 17.3 mph - N/A   Mostly Cloudy
11:52 AM 24.1 °F 11.0 °F 12.0 °F 60% 30.09 in 10.0 mi NNW 16.1 mph - N/A   Overcast
12:52 PM 23.0 °F 8.7 °F 10.9 °F 60% 30.10 in 10.0 mi NNW 18.4 mph - N/A   Overcast
1:52 PM 24.1 °F 9.4 °F 12.0 °F 60% 30.10 in 10.0 mi NNW 20.7 mph 26.5 mph N/A   Scattered Clouds
2:52 PM 23.0 °F 8.7 °F 10.9 °F 60% 30.13 in 10.0 mi NNW 18.4 mph 25.3 mph N/A   Clear
3:52 PM 21.9 °F 7.8 °F 10.9 °F 63% 30.16 in 10.0 mi NNW 17.3 mph - N/A   Partly Cloudy
4:52 PM 21.0 °F 8.6 °F 10.0 °F 63% 30.18 in 10.0 mi NNW 12.7 mph - N/A   Mostly Cloudy
5:52 PM 17.1 °F 5.8 °F 8.1 °F 68% 30.21 in 10.0 mi NNW 9.2 mph - N/A   Clear
6:52 PM 12.0 °F 5.9 °F 5.0 °F 73% 30.23 in 10.0 mi North 3.5 mph - N/A   Clear
7:52 PM 16.0 °F 7.4 °F 6.1 °F 65% 30.22 in 10.0 mi WNW 5.8 mph - N/A   Clear
8:52 PM 17.1 °F 11.7 °F 7.0 °F 65% 30.23 in 10.0 mi NNW 3.5 mph - N/A   Clear
9:52 PM 21.9 °F 10.4 °F 10.0 °F 60% 30.21 in 10.0 mi WNW 11.5 mph - N/A   Clear
10:52 PM 19.9 °F 10.1 °F 8.1 °F 60% 30.21 in 10.0 mi WNW 8.1 mph - N/A   Clear
11:52 PM 15.1 °F 6.4 °F 6.1 °F 68% 30.22 in 10.0 mi West 5.8 mph - N/A   Clear